Regional Weather Roundup
Issued by NWS

Home | Current Version | Previous Version | Graphics & Text | Print | Product List | Glossary On
Versions: 1 2 3 4 5 6 7 8 9 10 11 12 13 14 15 16 17 18 19 20 21 22 23 24 25 26 27 28 29 30 31 32 33 34 35 36 37 38 39 40 41 42 43 44 45 46 47 48 49 50
000
ASUS45 KPSR 281700
RWRAZ

ARIZONA HOURLY REGIONAL WEATHER ROUNDUP
NATIONAL WEATHER SERVICE PHOENIX AZ
1000 AM MST TUE JUL 28 2015

NOTE: FAIR INDICATES FEW OR NO CLOUDS BELOW 12,000 FEET WITH NO
SIGNIFICANT WEATHER AND/OR OBSTRUCTIONS TO VISIBILITY.

AZZ001>003-036-281800-
NORTHWEST ARIZONA

CITY           SKY/WX    TMP DP  RH WIND       PRES   REMARKS
KINGMAN        SUNNY     88  31  13 SW5       30.05R
$$

AZZ004>008-015-016-018-281800-
NORTH CENTRAL ARIZONA

CITY           SKY/WX    TMP DP  RH WIND       PRES   REMARKS
GRAND CANYON   SUNNY     76  29  17 S8        30.28F
WILLIAMS       SUNNY     77  34  20 VRB7G18   30.34S
PRESCOTT       SUNNY     82  36  19 N5        30.17S
FLAGSTAFF      NOT AVBL
PAYSON         CLOUDY    81  48  32 SW3       30.20R
PAGE           SUNNY     82  31  15 CALM      30.12S
$$

AZZ009>014-017-281800-
NORTHEAST ARIZONA

CITY           SKY/WX    TMP DP  RH WIND       PRES   REMARKS
WINSLOW        NOT AVBL
SAINT JOHNS    MOSUNNY   81  45  28 VRB3      30.21F
WINDOW ROCK    MOSUNNY   81  28  14 VRB5      30.28F
SHOW LOW       PTSUNNY   73  45  35 E5        30.28F
$$

AZZ023-281800-
GREATER PHOENIX AREA

CITY           SKY/WX    TMP DP  RH WIND       PRES   REMARKS
PHOENIX        PTSUNNY   95  58  28 SE6       29.88S
GLENDALE       PTSUNNY   93  57  29 S9        29.90F
DEER VALLEY    PTSUNNY   91  57  31 SW8       29.91S
SCOTTSDALE     PTSUNNY   92  55  28 CALM      29.93F
MESA-FALCON    PTSUNNY   93  55  27 SE6       29.91S
MESA-GATEWAY   MOSUNNY   91  61  35 SW3       29.93S
CHANDLER       PTSUNNY   95  55  26 SW12      29.90F
$$

AZZ027-028-281800-
SOUTHWEST MARICOPA COUNTY AND PINAL COUNTY

CITY           SKY/WX    TMP DP  RH WIND       PRES   REMARKS
CASA GRANDE    MOSUNNY   93  63  36 CALM      29.91S
$$

AZZ503-504-507>509-281800-
SOUTHEAST ARIZONA

CITY           SKY/WX    TMP DP  RH WIND       PRES   REMARKS
TUCSON         SUNNY     92  59  33 NW10      30.00F
RYAN FIELD     SUNNY     91  63  38 CALM      29.99F
NOGALES        SUNNY     84  63  49 W6        30.08F
SAFFORD        MOSUNNY   90  53  28 NW9       30.00F
$$

AZZ020-021-025-026-031-281800-
SOUTHWEST ARIZONA

CITY           SKY/WX    TMP DP  RH WIND       PRES   REMARKS
YUMA           MOSUNNY   96  67  38 S13       29.81F HX 100
$$

CAZ031-033-041-043-047-048-061-281800-
SOUTHERN CALIFORNIA

CITY           SKY/WX    TMP DP  RH WIND       PRES   REMARKS
DOWNTOWN L.A.  MOSUNNY   77  63  61 CALM      29.90F
L.A. AIRPORT   MOSUNNY   75  61  61 VRB6      29.91F
SAN DIEGO      PTSUNNY   72  61  68 SW7       29.92F
BURBANK        SUNNY     75  61  61 VRB3      29.91F
ONTARIO        SUNNY     74  60  61 CALM      29.92F
RIVERSIDE      SUNNY     74  60  61 CALM      29.92F
PALM SPRINGS   SUNNY     92  50  23 SE7       29.85S
EL CENTRO NAS  MOSUNNY   92  63  38 VRB5      29.82S
IMPERIAL       SUNNY     92  64  39 E5        29.80S
BLYTHE         SUNNY     95  57  27 S8        29.84S
$$

NVZ020-UTZ003-281800-
SOUTHERN NEVADA-UTAH

CITY           SKY/WX    TMP DP  RH WIND       PRES   REMARKS
LAS VEGAS      NOT AVBL
SALT LAKE CITY SUNNY     69  22  16 N12       30.28R
$$

NMZ009-TXZ055-281800-
NEW MEXICO-WEST TEXAS

CITY           SKY/WX    TMP DP  RH WIND       PRES   REMARKS
ALBUQUERQUE    MOSUNNY   83  47  28 CALM      30.17S
EL PASO        MOSUNNY   89  55  31 VRB5      30.05S
$$


........................KEY........................
SKY/WX - SKY CONDITION/WEATHER
TMP    - TEMPERATURE IN FAHRENHEIT
DP     - DEW POINT IN FAHRENHEIT
RH     - RELATIVE HUMIDITY IN PERCENT
WIND   - DIRECTION AND SPEED IN MILES PER HOUR (MPH)
VRB    - VARIABLE WIND DIRECTION
PRES   - MEAN SEA LEVEL PRESSURE IN INCHES OF MERCURY
         F - FALLING PRESSURE   R - RISING PRESSURE
         S - STEADY PRESSURE
VSB    - VISIBILITY IN MILES
HX     - HEAT INDEX IN FAHRENHEIT
WCI    - WIND CHILL INDEX IN FAHRENHEIT
TC     - TEMPERATURE IN CELSIUS WHICH IS ALSO KNOWN AS
         TEMPERATURE IN CENTIGRADE
AFB    - AIR FORCE BASE
         LUKE AFB IS LUKE AIR FORCE BASE
         DAVIS-MONTHAN IS DAVIS-MONTHAN AIR FORCE BASE
NAS    - NAVAL AIR STATION
         EL CENTRO NAS IS EL CENTRO NAVAL AIR STATION
N/A    - NOT AVAILABLE




USA.gov is the U.S. government's official web portal to all federal, state and local government web resources and services.